1545955200.89,58816,0.0,0.0,-4.01,-4.65,-4.65,0,*57
1545955202.12,58817,0.0,0.0,-4.01,-4.57,-4.57,0,*56
1545955203.35,58818,0.0,0.0,-4.01,-4.53,-4.57,0,*5D
1545955204.58,58819,0.0,0.0,-4.01,-4.53,-4.53,0,*58
1545955205.81,58820,0.0,0.0,-4.01,-4.57,-4.57,0,*52
1545955207.01,58821,0.0,0.0,-3.99,-4.49,-4.53,0,*5E
1545955208.22,58822,0.0,0.0,-3.99,-4.49,-4.61,0,*5C
1545955209.45,58823,0.0,0.0,-4.01,-4.57,-4.53,0,*55
1545955210.68,58824,0.0,0.0,-4.01,-4.57,-4.57,0,*56
1545955211.91,58825,0.0,0.0,-4.01,-4.53,-4.57,0,*53
1545955213.15,58826,0.0,0.0,-4.01,-4.57,-4.57,0,*54
1545955214.35,58827,0.0,0.0,-3.99,-4.53,-4.53,0,*53
1545955215.58,58828,0.0,0.0,-4.01,-4.57,-4.57,0,*5A
1545955216.82,58829,0.0,0.0,-4.01,-4.57,-4.57,0,*5B
1545955218.02,58830,0.0,0.0,-3.99,-4.53,-4.53,0,*55
1545955219.22,58831,0.0,0.0,-3.99,-4.53,-4.53,0,*54
1545955220.46,58832,0.0,0.0,-4.01,-4.57,-4.53,0,*55
1545955221.69,58833,0.0,0.0,-4.01,-4.65,-4.57,0,*51
1545955222.92,58834,0.0,0.0,-4.01,-4.57,-4.57,0,*57
1545955224.15,58835,0.0,0.0,-4.01,-4.65,-4.57,0,*57
1545955225.39,58836,0.0,0.0,-4.01,-4.57,-4.65,0,*54
1545955226.62,58837,0.0,0.0,-4.01,-4.57,-4.65,0,*55
1545955227.83,58838,0.0,0.0,-3.99,-4.61,-4.53,0,*5C
1545955229.06,58839,0.0,0.0,-4.01,-4.65,-4.65,0,*5A
1545955230.26,58840,0.0,0.0,-3.99,-4.65,-4.65,0,*52
1545955231.47,58841,0.0,0.0,-3.99,-4.61,-4.65,0,*57
1545955232.7,58842,0.0,0.0,-4.01,-4.65,-4.65,0,*56
1545955233.91,58843,0.0,0.0,-3.99,-4.61,-4.61,0,*51
1545955235.16,58844,0.0,0.0,-4.01,-4.69,-4.65,0,*5C
1545955236.36,58845,0.0,0.0,-3.99,-4.65,-4.65,0,*57
1545955237.57,58846,0.0,0.0,-3.99,-4.61,-4.65,0,*50
1545955238.82,58847,0.0,0.0,-4.01,-4.69,-4.65,0,*5F
1545955240.05,58848,0.0,0.0,-4.01,-4.65,-4.57,0,*5D
1545955241.28,58849,0.0,0.0,-4.01,-4.57,-4.57,0,*5D
1545955242.51,58850,0.0,0.0,-4.01,-4.65,-4.57,0,*54
1545955243.72,58851,0.0,0.0,-4.03,-4.65,-4.57,0,*57
1545955244.92,58852,0.0,0.0,-3.99,-4.61,-4.53,0,*50
1545955246.17,58853,0.0,0.0,-4.01,-4.69,-4.65,0,*5A
1545955247.4,58854,0.0,0.0,-4.01,-4.65,-4.57,0,*50
1545955248.63,58855,0.0,0.0,-4.01,-4.65,-4.65,0,*50
1545955249.86,58856,0.0,0.0,-4.01,-4.65,-4.65,0,*53
1545955251.09,58857,0.0,0.0,-4.01,-4.61,-4.65,0,*56
1545955252.3,58858,0.0,0.0,-3.99,-4.65,-4.61,0,*5F
1545955253.55,58859,0.0,0.0,-4.01,-4.65,-4.69,0,*50
1545955254.76,58860,0.0,0.0,-3.99,-4.61,-4.65,0,*54
1545955256.01,58861,0.0,0.0,-4.01,-4.65,-4.69,0,*5B
1545955257.22,58862,0.0,0.0,-3.99,-4.61,-4.61,0,*52
1545955258.42,58863,0.0,0.0,-3.99,-4.61,-4.61,0,*53
1545955259.68,58864,0.0,0.0,-4.01,-4.65,-4.69,0,*5E
1545955260.88,58865,0.0,0.0,-3.99,-4.61,-4.61,0,*55
1545955262.12,58866,0.0,0.0,-4.01,-4.65,-4.65,0,*50
1545955263.32,58867,0.0,0.0,-3.99,-4.61,-4.61,0,*57
1545955264.53,58868,0.0,0.0,-3.99,-4.61,-4.61,0,*58
1545955265.76,58869,0.0,0.0,-4.01,-4.65,-4.65,0,*5F
1545955266.99,58870,0.0,0.0,-4.01,-4.65,-4.65,0,*57
1545955268.24,58871,0.0,0.0,-4.01,-4.65,-4.69,0,*5A
1545955269.45,58872,0.0,0.0,-3.99,-4.61,-4.61,0,*53
1545955270.65,58873,0.0,0.0,-3.99,-4.61,-4.61,0,*52
1545955271.9,58874,0.0,0.0,-4.01,-4.69,-4.65,0,*5F
1545955273.11,58875,0.0,0.0,-3.99,-4.61,-4.61,0,*54
1545955274.31,58876,0.0,0.0,-3.99,-4.61,-4.61,0,*57
1545955275.55,58877,0.0,0.0,-4.01,-4.57,-4.65,0,*51
1545955276.75,58878,0.0,0.0,-3.99,-4.61,-4.65,0,*5D
1545955277.98,58879,0.0,0.0,-4.01,-4.65,-4.57,0,*5F
1545955279.19,58880,0.0,0.0,-3.99,-4.61,-4.57,0,*5B
1545955280.42,58881,0.0,0.0,-4.01,-4.65,-4.57,0,*58
1545955281.63,58882,0.0,0.0,-3.99,-4.61,-4.61,0,*5C
1545955282.86,58883,0.0,0.0,-4.01,-4.65,-4.65,0,*5B
1545955284.11,58884,0.0,0.0,-4.01,-4.69,-4.61,0,*54
1545955285.31,58885,0.0,0.0,-3.99,-4.61,-4.61,0,*5B
1545955286.54,58886,0.0,0.0,-4.01,-4.65,-4.65,0,*5E
1545955287.75,58887,0.0,0.0,-3.99,-4.61,-4.61,0,*59
1545955288.95,58888,0.0,0.0,-3.99,-4.65,-4.61,0,*52
1545955290.16,58889,0.0,0.0,-3.99,-4.65,-4.65,0,*57
1545955291.39,58890,0.0,0.0,-3.99,-4.69,-4.65,0,*53
1545955292.59,58891,0.0,0.0,-3.99,-4.61,-4.65,0,*5A
1545955293.82,58892,0.0,0.0,-4.01,-4.65,-4.65,0,*5B
1545955295.09,58893,0.0,0.0,-4.01,-4.69,-4.69,0,*5A
1545955296.34,58894,0.0,0.0,-4.01,-4.69,-4.65,0,*51
1545955297.55,58895,0.0,0.0,-3.99,-4.61,-4.65,0,*5E
1545955298.82,58896,0.0,0.0,-4.01,-4.69,-4.69,0,*5F
1545955300.03,58897,0.0,0.0,-3.99,-4.61,-4.65,0,*5C
1545955301.26,58898,0.0,0.0,-4.01,-4.65,-4.65,0,*51
1545955302.51,58899,0.0,0.0,-4.01,-4.65,-4.69,0,*5C
1545955303.74,58900,0.0,0.0,-4.01,-4.65,-4.65,0,*51
1545955304.99,58901,0.0,0.0,-4.01,-4.69,-4.65,0,*5C
1545955306.2,58902,0.0,0.0,-3.99,-4.61,-4.61,0,*55
1545955307.44,58903,0.0,0.0,-4.01,-4.69,-4.65,0,*5E
1545955308.65,58904,0.0,0.0,-3.99,-4.61,-4.61,0,*53
1545955309.86,58905,0.0,0.0,-3.99,-4.65,-4.65,0,*52
1545955311.09,58906,0.0,0.0,-4.01,-4.65,-4.57,0,*56
1545955312.29,58907,0.0,0.0,-3.99,-4.65,-4.61,0,*54
1545955313.54,58908,0.0,0.0,-4.01,-4.69,-4.65,0,*55
1545955314.76,58909,0.0,0.0,-4.03,-4.69,-4.65,0,*56
1545955315.97,58910,0.0,0.0,-3.99,-4.61,-4.65,0,*52
1545955317.18,58911,0.0,0.0,-3.99,-4.61,-4.65,0,*53
1545955318.38,58912,0.0,0.0,-3.99,-4.65,-4.65,0,*54
1545955319.61,58913,0.0,0.0,-4.01,-4.65,-4.65,0,*53
1545955320.88,58914,0.0,0.0,-4.01,-4.69,-4.69,0,*54
1545955322.16,58915,0.0,0.0,-4.01,-4.69,-4.69,0,*55
1545955323.4,58916,0.0,0.0,-4.01,-4.69,-4.65,0,*5A
1545955324.65,58917,0.0,0.0,-4.01,-4.69,-4.65,0,*5B
1545955325.9,58918,0.0,0.0,-4.01,-4.69,-4.65,0,*54
1545955327.15,58919,0.0,0.0,-4.01,-4.69,-4.65,0,*55
1545955328.36,58920,0.0,0.0,-3.99,-4.65,-4.61,0,*51
1545955329.6,58921,0.0,0.0,-4.01,-4.69,-4.65,0,*5E
1545955330.86,58922,0.0,0.0,-4.01,-4.65,-4.69,0,*5D
1545955332.11,58923,0.0,0.0,-4.01,-4.65,-4.69,0,*5C
1545955333.36,58924,0.0,0.0,-4.01,-4.69,-4.65,0,*5B
1545955334.59,58925,0.0,0.0,-4.01,-4.65,-4.65,0,*56
1545955335.85,58926,0.0,0.0,-4.01,-4.65,-4.69,0,*59
1545955337.09,58927,0.0,0.0,-4.01,-4.69,-4.65,0,*58
1545955338.3,58928,0.0,0.0,-3.99,-4.65,-4.65,0,*5D
1545955339.55,58929,0.0,0.0,-4.01,-4.69,-4.65,0,*56
1545955340.8,58930,0.0,0.0,-4.01,-4.65,-4.69,0,*5E
1545955342.05,58931,0.0,0.0,-4.01,-4.65,-4.77,0,*50
1545955343.28,58932,0.0,0.0,-3.99,-4.69,-4.65,0,*5A
1545955344.49,58933,0.0,0.0,-3.99,-4.65,-4.65,0,*57
1545955345.76,58934,0.0,0.0,-4.01,-4.69,-4.69,0,*56
1545955346.96,58935,0.0,0.0,-3.99,-4.65,-4.65,0,*51
1545955348.24,58936,0.0,0.0,-4.01,-4.69,-4.69,0,*54
1545955349.47,58937,0.0,0.0,-4.01,-4.65,-4.65,0,*55
1545955350.74,58938,0.0,0.0,-4.01,-4.69,-4.69,0,*5A
1545955351.97,58939,0.0,0.0,-4.01,-4.65,-4.65,0,*5B
1545955353.22,58940,0.0,0.0,-4.01,-4.65,-4.69,0,*59
1545955354.5,58941,0.0,0.0,-4.01,-4.69,-4.69,0,*54
1545955355.77,58942,0.0,0.0,-4.01,-4.69,-4.69,0,*57
1545955357.02,58943,0.0,0.0,-4.01,-4.69,-4.65,0,*5A
1545955358.22,58944,0.0,0.0,-3.99,-4.65,-4.65,0,*57
1545955359.47,58945,0.0,0.0,-4.01,-4.69,-4.65,0,*5C
1545955360.68,58946,0.0,0.0,-3.99,-4.65,-4.65,0,*55
1545955361.91,58947,0.0,0.0,-4.01,-4.65,-4.65,0,*52
1545955363.16,58948,0.0,0.0,-4.01,-4.69,-4.65,0,*51
1545955364.39,58949,0.0,0.0,-4.01,-4.65,-4.65,0,*5C
1545955365.62,58950,0.0,0.0,-4.01,-4.65,-4.65,0,*54
1545955366.85,58951,0.0,0.0,-4.01,-4.65,-4.65,0,*55
1545955368.05,58952,0.0,0.0,-3.99,-4.61,-4.61,0,*50
1545955369.28,58953,0.0,0.0,-4.01,-4.65,-4.57,0,*56
1545955370.54,58954,0.0,0.0,-4.01,-4.65,-4.69,0,*5C
1545955371.75,58955,0.0,0.0,-3.99,-4.61,-4.53,0,*56
1545955372.98,58956,0.0,0.0,-4.01,-4.57,-4.57,0,*52
1545955374.21,58957,0.0,0.0,-4.01,-4.57,-4.57,0,*53
1545955375.42,58958,0.0,0.0,-3.99,-4.53,-4.53,0,*5A
1545955376.62,58959,0.0,0.0,-3.99,-4.53,-4.53,0,*5B
1545955377.85,58960,0.0,0.0,-4.01,-4.65,-4.57,0,*56
1545955379.08,58961,0.0,0.0,-4.01,-4.57,-4.53,0,*52
1545955380.32,58962,0.0,0.0,-4.01,-4.57,-4.57,0,*55
1545955381.55,58963,0.0,0.0,-4.01,-4.53,-4.53,0,*54
1545955382.75,58964,0.0,0.0,-3.99,-4.61,-4.53,0,*54
1545955383.99,58965,0.0,0.0,-4.01,-4.57,-4.53,0,*56
1545955385.22,58966,0.0,0.0,-4.01,-4.57,-4.57,0,*51
1545955386.45,58967,0.0,0.0,-4.01,-4.57,-4.53,0,*54
1545955387.65,58968,0.0,0.0,-3.99,-4.49,-4.49,0,*59
1545955388.85,58969,0.0,0.0,-3.99,-4.53,-4.49,0,*53
1545955390.08,58970,0.0,0.0,-4.01,-4.53,-4.53,0,*56
1545955391.28,58971,0.0,0.0,-3.99,-4.49,-4.53,0,*5A
1545955392.52,58972,0.0,0.0,-4.01,-4.57,-4.57,0,*54
1545955393.72,58973,0.0,0.0,-3.99,-4.49,-4.49,0,*53
1545955394.92,58974,0.0,0.0,-3.99,-4.53,-4.53,0,*54
1545955396.15,58975,0.0,0.0,-4.01,-4.57,-4.53,0,*57
1545955397.35,58976,0.0,0.0,-3.99,-4.49,-4.49,0,*56
1545955398.55,58977,0.0,0.0,-3.99,-4.53,-4.49,0,*5C
1545955399.78,58978,0.0,0.0,-4.01,-4.53,-4.53,0,*5E
1545955400.98,58979,0.0,0.0,-3.99,-4.53,-4.49,0,*52
1545955402.21,58980,0.0,0.0,-4.01,-4.53,-4.53,0,*59
1545955403.41,58981,0.0,0.0,-3.99,-4.53,-4.53,0,*5E
1545955404.61,58982,0.0,0.0,-3.99,-4.53,-4.49,0,*56
1545955405.81,58983,0.0,0.0,-3.99,-4.49,-4.49,0,*5C
1545955407.04,58984,0.0,0.0,-3.97,-4.49,-4.49,0,*55
1545955408.24,58985,0.0,0.0,-3.99,-4.53,-4.57,0,*5E
1545955409.44,58986,0.0,0.0,-3.99,-4.49,-4.49,0,*59
1545955410.64,58987,0.0,0.0,-3.99,-4.53,-4.49,0,*53
1545955411.85,58988,0.0,0.0,-3.99,-4.49,-4.53,0,*5C
1545955413.05,58989,0.0,0.0,-3.99,-4.53,-4.49,0,*5D
1545955414.25,58990,0.0,0.0,-3.99,-4.49,-4.49,0,*5E
1545955415.45,58991,0.0,0.0,-3.99,-4.53,-4.49,0,*54
1545955416.68,58992,0.0,0.0,-4.01,-4.57,-4.57,0,*5A
1545955417.88,58993,0.0,0.0,-3.99,-4.53,-4.49,0,*56
1545955419.08,58994,0.0,0.0,-3.99,-4.53,-4.53,0,*5A
1545955420.29,58995,0.0,0.0,-3.99,-4.41,-4.49,0,*53
1545955421.49,58996,0.0,0.0,-3.99,-4.53,-4.57,0,*5C
1545955422.7,58997,0.0,0.0,-3.99,-4.53,-4.53,0,*59
1545955423.9,58998,0.0,0.0,-3.99,-4.53,-4.53,0,*56
1545955425.1,58999,0.0,0.0,-3.99,-4.53,-4.53,0,*57
1545955426.3,59000,0.0,0.0,-3.99,-4.53,-4.49,0,*54
1545955427.51,59001,0.0,0.0,-3.99,-4.53,-4.53,0,*5E
1545955428.71,59002,0.0,0.0,-3.99,-4.53,-4.53,0,*5D
1545955429.92,59003,0.0,0.0,-3.99,-4.61,-4.53,0,*5D
1545955431.12,59004,0.0,0.0,-3.99,-4.53,-4.53,0,*5B
1545955432.32,59005,0.0,0.0,-3.99,-4.53,-4.49,0,*51
1545955433.52,59006,0.0,0.0,-3.99,-4.53,-4.53,0,*59
1545955434.73,59007,0.0,0.0,-3.99,-4.53,-4.53,0,*58
1545955435.96,59008,0.0,0.0,-3.97,-4.53,-4.53,0,*59
1545955437.19,59009,0.0,0.0,-3.97,-4.49,-4.53,0,*53
1545955438.42,59010,0.0,0.0,-3.97,-4.53,-4.53,0,*50
1545955439.65,59011,0.0,0.0,-3.97,-4.49,-4.49,0,*51
1545955440.88,59012,0.0,0.0,-3.97,-4.53,-4.53,0,*52
1545955442.11,59013,0.0,0.0,-3.97,-4.53,-4.53,0,*53
1545955443.34,59014,0.0,0.0,-3.97,-4.53,-4.53,0,*54
1545955444.56,59015,0.0,0.0,-3.97,-4.53,-4.49,0,*5E
1545955445.8,59016,0.0,0.0,-3.97,-4.49,-4.53,0,*5D
1545955447.03,59017,0.0,0.0,-3.97,-4.61,-4.53,0,*56
1545955448.26,59018,0.0,0.0,-3.97,-4.53,-4.53,0,*58
1545955449.49,59019,0.0,0.0,-3.97,-4.53,-4.53,0,*59
1545955450.72,59020,0.0,0.0,-3.97,-4.61,-4.53,0,*52
1545955451.93,59021,0.0,0.0,-3.99,-4.53,-4.53,0,*5C
1545955453.13,59022,0.0,0.0,-3.99,-4.53,-4.53,0,*5F
1545955454.33,59023,0.0,0.0,-3.99,-4.49,-4.53,0,*55
1545955455.54,59024,0.0,0.0,-3.99,-4.61,-4.53,0,*58
1545955456.77,59025,0.0,0.0,-3.97,-4.61,-4.53,0,*57
1545955458.0,59026,0.0,0.0,-3.97,-4.53,-4.61,0,*54
1545955459.23,59027,0.0,0.0,-3.97,-4.53,-4.53,0,*54
1545955460.46,59028,0.0,0.0,-3.97,-4.53,-4.53,0,*5B
1545955461.69,59029,0.0,0.0,-3.97,-4.53,-4.53,0,*5A
1545955462.92,59030,0.0,0.0,-3.97,-4.53,-4.53,0,*52
1545955464.15,59031,0.0,0.0,-3.97,-4.53,-4.53,0,*53
1545955465.39,59032,0.0,0.0,-3.97,-4.61,-4.53,0,*51
1545955466.62,59033,0.0,0.0,-3.97,-4.65,-4.49,0,*5F
1545955467.85,59034,0.0,0.0,-3.97,-4.49,-4.53,0,*5D
1545955469.08,59035,0.0,0.0,-3.97,-4.61,-4.61,0,*57
1545955470.31,59036,0.0,0.0,-3.97,-4.61,-4.53,0,*55
1545955471.55,59037,0.0,0.0,-3.97,-4.61,-4.53,0,*54
1545955472.78,59038,0.0,0.0,-3.97,-4.61,-4.53,0,*5B
1545955474.01,59039,0.0,0.0,-3.97,-4.53,-4.53,0,*5B
1545955475.22,59040,0.0,0.0,-3.95,-4.57,-4.57,0,*57
1545955476.41,59041,0.0,0.0,-3.95,-4.49,-4.49,0,*56
1545955477.64,59042,0.0,0.0,-3.97,-4.61,-4.49,0,*5D
1545955478.87,59043,0.0,0.0,-3.97,-4.53,-4.49,0,*5D
1545955480.1,59044,0.0,0.0,-3.97,-4.61,-4.53,0,*50
1545955481.33,59045,0.0,0.0,-3.97,-4.53,-4.53,0,*50
1545955482.56,59046,0.0,0.0,-3.97,-4.61,-4.49,0,*59
1545955483.76,59047,0.0,0.0,-3.95,-4.61,-4.49,0,*5A
1545955484.99,59048,0.0,0.0,-3.97,-4.65,-4.49,0,*53
1545955486.22,59049,0.0,0.0,-3.97,-4.61,-4.53,0,*5D
1545955487.45,59050,0.0,0.0,-3.97,-4.53,-4.53,0,*54
1545955488.65,59051,0.0,0.0,-3.95,-4.49,-4.49,0,*57
1545955489.88,59052,0.0,0.0,-3.97,-4.53,-4.61,0,*57
1545955491.11,59053,0.0,0.0,-3.97,-4.53,-4.53,0,*57
1545955492.34,59054,0.0,0.0,-3.97,-4.53,-4.53,0,*50
1545955493.57,59055,0.0,0.0,-3.97,-4.61,-4.61,0,*51
1545955494.81,59056,0.0,0.0,-3.97,-4.61,-4.61,0,*52
1545955496.04,59057,0.0,0.0,-3.97,-4.61,-4.53,0,*52
1545955497.27,59058,0.0,0.0,-3.97,-4.61,-4.61,0,*5C
1545955498.5,59059,0.0,0.0,-3.97,-4.61,-4.53,0,*5C
1545955499.74,59060,0.0,0.0,-3.97,-4.53,-4.53,0,*57
1545955500.93,59061,0.0,0.0,-3.95,-4.49,-4.49,0,*54
1545955502.16,59062,0.0,0.0,-3.97,-4.61,-4.61,0,*55
1545955503.4,59063,0.0,0.0,-3.97,-4.61,-4.61,0,*54
1545955504.63,59064,0.0,0.0,-3.97,-4.61,-4.61,0,*53
1545955505.86,59065,0.0,0.0,-3.97,-4.61,-4.65,0,*56
1545955507.09,59066,0.0,0.0,-3.97,-4.61,-4.53,0,*50
1545955508.33,59067,0.0,0.0,-3.97,-4.61,-4.61,0,*50
1545955509.56,59068,0.0,0.0,-3.97,-4.53,-4.61,0,*5E
1545955510.79,59069,0.0,0.0,-3.97,-4.61,-4.53,0,*5F
1545955511.99,59070,0.0,0.0,-3.95,-4.61,-4.57,0,*51
1545955513.2,59071,0.0,0.0,-3.95,-4.57,-4.61,0,*50
1545955514.43,59072,0.0,0.0,-3.97,-4.61,-4.61,0,*54
1545955515.66,59073,0.0,0.0,-3.97,-4.65,-4.61,0,*51
1545955516.9,59074,0.0,0.0,-3.97,-4.61,-4.61,0,*52
1545955518.13,59075,0.0,0.0,-3.97,-4.61,-4.65,0,*57
1545955519.36,59076,0.0,0.0,-3.97,-4.65,-4.61,0,*54
1545955520.59,59077,0.0,0.0,-3.97,-4.65,-4.61,0,*55
1545955521.83,59078,0.0,0.0,-3.97,-4.61,-4.65,0,*5A
1545955523.06,59079,0.0,0.0,-3.97,-4.61,-4.61,0,*5F
1545955524.27,59080,0.0,0.0,-3.95,-4.57,-4.57,0,*5B
1545955525.47,59081,0.0,0.0,-3.95,-4.61,-4.61,0,*5A
1545955526.7,59082,0.0,0.0,-3.97,-4.65,-4.65,0,*5B
1545955527.94,59083,0.0,0.0,-3.97,-4.65,-4.65,0,*5A
1545955529.14,59084,0.0,0.0,-3.95,-4.61,-4.57,0,*5A
1545955530.37,59085,0.0,0.0,-3.97,-4.65,-4.61,0,*58
1545955531.57,59086,0.0,0.0,-3.95,-4.61,-4.61,0,*5D
1545955532.81,59087,0.0,0.0,-3.97,-4.61,-4.61,0,*5E
1545955534.04,59088,0.0,0.0,-3.97,-4.61,-4.65,0,*55
1545955535.25,59089,0.0,0.0,-3.95,-4.57,-4.61,0,*57
1545955536.45,59090,0.0,0.0,-3.95,-4.57,-4.57,0,*5A
1545955537.68,59091,0.0,0.0,-3.97,-4.65,-4.61,0,*5D
1545955538.92,59092,0.0,0.0,-3.97,-4.61,-4.61,0,*5A
1545955540.12,59093,0.0,0.0,-3.95,-4.61,-4.61,0,*59
1545955541.35,59094,0.0,0.0,-3.97,-4.65,-4.61,0,*58
1545955542.58,59095,0.0,0.0,-3.97,-4.61,-4.61,0,*5D
1545955543.82,59096,0.0,0.0,-3.97,-4.61,-4.61,0,*5E
1545955545.05,59097,0.0,0.0,-3.97,-4.65,-4.61,0,*5B
1545955546.26,59098,0.0,0.0,-3.95,-4.57,-4.57,0,*52
1545955547.49,59099,0.0,0.0,-3.97,-4.61,-4.65,0,*55
1545955548.7,59100,0.0,0.0,-3.95,-4.57,-4.57,0,*52
1545955549.93,59101,0.0,0.0,-3.97,-4.61,-4.53,0,*50
1545955551.16,59102,0.0,0.0,-3.97,-4.61,-4.61,0,*52
1545955552.37,59103,0.0,0.0,-3.95,-4.57,-4.57,0,*51
1545955553.57,59104,0.0,0.0,-3.95,-4.61,-4.57,0,*53
1545955554.78,59105,0.0,0.0,-3.95,-4.57,-4.57,0,*57
1545955555.98,59106,0.0,0.0,-3.95,-4.61,-4.57,0,*51
1545955557.19,59107,0.0,0.0,-3.95,-4.57,-4.61,0,*50
1545955558.42,59108,0.0,0.0,-3.97,-4.65,-4.65,0,*58
1545955559.65,59109,0.0,0.0,-3.97,-4.65,-4.61,0,*5D
1545955560.88,59110,0.0,0.0,-3.97,-4.61,-4.61,0,*51
1545955562.12,59111,0.0,0.0,-3.97,-4.61,-4.65,0,*54
1545955563.35,59112,0.0,0.0,-3.97,-4.61,-4.65,0,*57
1545955564.55,59113,0.0,0.0,-3.95,-4.61,-4.57,0,*55
1545955565.79,59114,0.0,0.0,-3.97,-4.61,-4.65,0,*51
1545955567.02,59115,0.0,0.0,-3.97,-4.65,-4.61,0,*50
1545955568.25,59116,0.0,0.0,-3.97,-4.65,-4.61,0,*53
1545955569.45,59117,0.0,0.0,-3.95,-4.61,-4.61,0,*54
1545955570.66,59118,0.0,0.0,-3.95,-4.61,-4.61,0,*5B
1545955571.86,59119,0.0,0.0,-3.95,-4.57,-4.57,0,*5A
1545955573.07,59120,0.0,0.0,-3.95,-4.61,-4.57,0,*55
1545955574.27,59121,0.0,0.0,-3.95,-4.61,-4.61,0,*51
1545955575.5,59122,0.0,0.0,-3.97,-4.65,-4.61,0,*54
1545955576.73,59123,0.0,0.0,-3.97,-4.65,-4.65,0,*51
1545955577.97,59124,0.0,0.0,-3.97,-4.65,-4.61,0,*52
1545955579.2,59125,0.0,0.0,-3.97,-4.65,-4.65,0,*57
1545955580.43,59126,0.0,0.0,-3.97,-4.65,-4.61,0,*50
1545955581.65,59127,0.0,0.0,-3.95,-4.69,-4.57,0,*5A
1545955582.89,59128,0.0,0.0,-3.97,-4.65,-4.61,0,*5E
1545955584.09,59129,0.0,0.0,-3.95,-4.57,-4.57,0,*59
1545955585.33,59130,0.0,0.0,-3.97,-4.65,-4.61,0,*57
1545955586.53,59131,0.0,0.0,-3.95,-4.57,-4.61,0,*55
1545955587.73,59132,0.0,0.0,-3.95,-4.61,-4.61,0,*53
1545955588.94,59133,0.0,0.0,-3.95,-4.57,-4.61,0,*57
1545955590.17,59134,0.0,0.0,-3.97,-4.61,-4.61,0,*57
1545955591.4,59135,0.0,0.0,-3.97,-4.65,-4.61,0,*52
1545955592.64,59136,0.0,0.0,-3.97,-4.65,-4.61,0,*51
1545955593.87,59137,0.0,0.0,-3.97,-4.65,-4.61,0,*50
1545955595.1,59138,0.0,0.0,-3.97,-4.65,-4.61,0,*5F
1545955596.31,59139,0.0,0.0,-3.95,-4.61,-4.65,0,*5C
1545955597.51,59140,0.0,0.0,-3.95,-4.57,-4.57,0,*56
1545955598.75,59141,0.0,0.0,-3.97,-4.65,-4.61,0,*51
1545955599.98,59142,0.0,0.0,-3.97,-4.65,-4.61,0,*52
1545955601.18,59143,0.0,0.0,-3.95,-4.61,-4.57,0,*50
1545955602.38,59144,0.0,0.0,-3.95,-4.61,-4.61,0,*52
1545955603.62,59145,0.0,0.0,-3.97,-4.61,-4.65,0,*55
1545955604.85,59146,0.0,0.0,-3.97,-4.65,-4.61,0,*56
1545955606.05,59147,0.0,0.0,-3.95,-4.61,-4.57,0,*54
1545955607.26,59148,0.0,0.0,-3.95,-4.61,-4.57,0,*5B
1545955608.46,59149,0.0,0.0,-3.95,-4.57,-4.57,0,*5F
1545955609.69,59150,0.0,0.0,-3.97,-4.65,-4.61,0,*51
1545955610.9,59151,0.0,0.0,-3.95,-4.61,-4.57,0,*53
1545955612.1,59152,0.0,0.0,-3.95,-4.61,-4.61,0,*55
1545955613.33,59153,0.0,0.0,-3.97,-4.61,-4.61,0,*56
1545955614.57,59154,0.0,0.0,-3.97,-4.65,-4.65,0,*51
1545955615.8,59155,0.0,0.0,-3.97,-4.61,-4.61,0,*50
1545955617.01,59156,0.0,0.0,-3.95,-4.57,-4.57,0,*51
1545955618.21,59157,0.0,0.0,-3.95,-4.61,-4.61,0,*50
1545955619.44,59158,0.0,0.0,-3.97,-4.61,-4.61,0,*5D
1545955620.65,59159,0.0,0.0,-3.95,-4.57,-4.57,0,*5E
1545955621.85,59160,0.0,0.0,-3.95,-4.57,-4.61,0,*51
1545955623.08,59161,0.0,0.0,-3.97,-4.61,-4.61,0,*57
1545955624.32,59162,0.0,0.0,-3.97,-4.65,-4.65,0,*54
1545955625.52,59163,0.0,0.0,-3.95,-4.57,-4.49,0,*58
1545955626.72,59164,0.0,0.0,-3.95,-4.61,-4.61,0,*50
1545955627.95,59165,0.0,0.0,-3.97,-4.61,-4.61,0,*53
1545955629.19,59166,0.0,0.0,-3.97,-4.65,-4.65,0,*50
1545955630.42,59167,0.0,0.0,-3.97,-4.61,-4.65,0,*55
1545955631.65,59168,0.0,0.0,-3.97,-4.65,-4.65,0,*5E
1545955632.89,59169,0.0,0.0,-3.97,-4.61,-4.65,0,*5B
1545955634.12,59170,0.0,0.0,-3.97,-4.65,-4.65,0,*57
1545955635.35,59171,0.0,0.0,-3.95,-4.61,-4.69,0,*5C
1545955636.59,59172,0.0,0.0,-3.95,-4.69,-4.69,0,*57
1545955637.83,59173,0.0,0.0,-3.97,-4.65,-4.65,0,*54
1545955639.06,59174,0.0,0.0,-3.97,-4.65,-4.65,0,*53
1545955640.28,59175,0.0,0.0,-3.95,-4.69,-4.61,0,*58
1545955641.51,59176,0.0,0.0,-3.97,-4.65,-4.61,0,*55
1545955642.75,59177,0.0,0.0,-3.97,-4.65,-4.61,0,*54
1545955643.98,59178,0.0,0.0,-3.97,-4.61,-4.61,0,*5F
1545955645.21,59179,0.0,0.0,-3.97,-4.61,-4.61,0,*5E
1545955646.42,59180,0.0,0.0,-3.95,-4.57,-4.57,0,*5A
1545955647.62,59181,0.0,0.0,-3.95,-4.61,-4.57,0,*5E
1545955648.85,59182,0.0,0.0,-3.97,-4.65,-4.61,0,*5E
1545955650.09,59183,0.0,0.0,-3.97,-4.61,-4.61,0,*5B
1545955651.32,59184,0.0,0.0,-3.97,-4.65,-4.61,0,*58
1545955652.53,59185,0.0,0.0,-3.95,-4.57,-4.57,0,*5F
1545955653.76,59186,0.0,0.0,-3.97,-4.61,-4.61,0,*5E
1545955654.99,59187,0.0,0.0,-3.97,-4.61,-4.53,0,*5E
1545955656.2,59188,0.0,0.0,-3.95,-4.57,-4.57,0,*52
1545955657.43,59189,0.0,0.0,-3.97,-4.61,-4.61,0,*51
1545955658.66,59190,0.0,0.0,-3.97,-4.61,-4.49,0,*53
1545955659.89,59191,0.0,0.0,-3.97,-4.61,-4.53,0,*59
1545955661.09,59192,0.0,0.0,-3.95,-4.61,-4.61,0,*59
1545955662.3,59193,0.0,0.0,-3.95,-4.61,-4.57,0,*5D
1545955663.53,59194,0.0,0.0,-3.97,-4.61,-4.61,0,*5D
1545955664.74,59195,0.0,0.0,-3.95,-4.57,-4.57,0,*5E
1545955665.97,59196,0.0,0.0,-3.97,-4.65,-4.61,0,*5B
1545955667.2,59197,0.0,0.0,-3.97,-4.65,-4.65,0,*5E
1545955668.44,59198,0.0,0.0,-3.97,-4.65,-4.61,0,*55
1545955669.64,59199,0.0,0.0,-3.95,-4.61,-4.61,0,*52
1545955670.84,59200,0.0,0.0,-3.95,-4.61,-4.57,0,*54
1545955672.07,59201,0.0,0.0,-3.97,-4.61,-4.61,0,*52
1545955673.31,59202,0.0,0.0,-3.97,-4.61,-4.65,0,*55
1545955674.56,59203,0.0,0.0,-3.97,-4.73,-4.65,0,*57
1545955675.76,59204,0.0,0.0,-3.95,-4.61,-4.61,0,*55
1545955677.0,59205,0.0,0.0,-3.97,-4.65,-4.65,0,*56
1545955678.23,59206,0.0,0.0,-3.97,-4.65,-4.61,0,*51
1545955679.45,59207,0.0,0.0,-3.95,-4.69,-4.57,0,*5B
1545955680.71,59208,0.0,0.0,-3.97,-4.65,-4.73,0,*5C
1545955681.94,59209,0.0,0.0,-3.97,-4.65,-4.65,0,*5A
1545955683.16,59210,0.0,0.0,-3.95,-4.69,-4.61,0,*58
1545955684.36,59211,0.0,0.0,-3.95,-4.61,-4.57,0,*54
1545955685.6,59212,0.0,0.0,-3.97,-4.65,-4.65,0,*50
1545955686.83,59213,0.0,0.0,-3.97,-4.65,-4.65,0,*51
1545955688.06,59214,0.0,0.0,-3.97,-4.65,-4.61,0,*52
1545955689.3,59215,0.0,0.0,-3.97,-4.65,-4.65,0,*57
1545955690.53,59216,0.0,0.0,-3.97,-4.65,-4.65,0,*54
1545955691.76,59217,0.0,0.0,-3.97,-4.61,-4.61,0,*55
1545955693.02,59218,0.0,0.0,-3.97,-4.73,-4.61,0,*59
1545955694.27,59219,0.0,0.0,-3.97,-4.73,-4.65,0,*5C
1545955695.49,59220,0.0,0.0,-3.95,-4.69,-4.61,0,*5B
1545955696.75,59221,0.0,0.0,-3.97,-4.73,-4.65,0,*57
1545955697.97,59222,0.0,0.0,-3.95,-4.69,-4.61,0,*59
1545955699.22,59223,0.0,0.0,-3.97,-4.77,-4.61,0,*55
1545955700.44,59224,0.0,0.0,-3.95,-4.69,-4.61,0,*5F
1545955701.64,59225,0.0,0.0,-3.95,-4.57,-4.57,0,*56
1545955702.86,59226,0.0,0.0,-3.95,-4.69,-4.57,0,*58
1545955704.07,59227,0.0,0.0,-3.95,-4.61,-4.65,0,*50
1545955705.27,59228,0.0,0.0,-3.95,-4.61,-4.57,0,*5E
1545955706.48,59229,0.0,0.0,-3.95,-4.57,-4.57,0,*5A
1545955707.71,59230,0.0,0.0,-3.97,-4.65,-4.61,0,*54
1545955708.94,59231,0.0,0.0,-3.97,-4.61,-4.65,0,*55
1545955710.15,59232,0.0,0.0,-3.95,-4.65,-4.65,0,*50
1545955711.35,59233,0.0,0.0,-3.95,-4.65,-4.65,0,*51
1545955712.58,59234,0.0,0.0,-3.97,-4.65,-4.61,0,*50
1545955713.79,59235,0.0,0.0,-3.95,-4.57,-4.57,0,*57
1545955715.02,59236,0.0,0.0,-3.97,-4.65,-4.65,0,*56
1545955716.22,59237,0.0,0.0,-3.95,-4.61,-4.61,0,*55
1545955717.43,59238,0.0,0.0,-3.95,-4.57,-4.61,0,*5F
1545955718.66,59239,0.0,0.0,-3.97,-4.61,-4.65,0,*5D
1545955719.9,59240,0.0,0.0,-3.97,-4.65,-4.65,0,*57
1545955721.1,59241,0.0,0.0,-3.95,-4.61,-4.57,0,*51
1545955722.33,59242,0.0,0.0,-3.97,-4.61,-4.61,0,*55
1545955723.56,59243,0.0,0.0,-3.97,-4.61,-4.65,0,*50
1545955724.8,59244,0.0,0.0,-3.97,-4.61,-4.61,0,*53
1545955726.0,59245,0.0,0.0,-3.95,-4.61,-4.57,0,*55
1545955727.2,59246,0.0,0.0,-3.95,-4.61,-4.57,0,*56
1545955728.44,59247,0.0,0.0,-3.97,-4.61,-4.65,0,*54
1545955729.64,59248,0.0,0.0,-3.95,-4.57,-4.61,0,*58
1545955730.87,59249,0.0,0.0,-3.97,-4.65,-4.61,0,*5A
1545955732.11,59250,0.0,0.0,-3.97,-4.65,-4.61,0,*52
1545955733.31,59251,0.0,0.0,-3.95,-4.57,-4.57,0,*55
1545955734.52,59252,0.0,0.0,-3.95,-4.57,-4.57,0,*56
1545955735.72,59253,0.0,0.0,-3.95,-4.65,-4.61,0,*53
1545955736.92,59254,0.0,0.0,-3.95,-4.61,-4.61,0,*50
1545955738.13,59255,0.0,0.0,-3.95,-4.57,-4.57,0,*51
1545955739.34,59256,0.0,0.0,-3.95,-4.57,-4.57,0,*52
1545955740.54,59257,0.0,0.0,-3.95,-4.61,-4.57,0,*56
1545955741.77,59258,0.0,0.0,-3.97,-4.61,-4.53,0,*5F
1545955743.01,59259,0.0,0.0,-3.97,-4.61,-4.53,0,*5E
1545955744.24,59260,0.0,0.0,-3.97,-4.61,-4.53,0,*54
1545955745.47,59261,0.0,0.0,-3.97,-4.65,-4.61,0,*50
1545955746.7,59262,0.0,0.0,-3.97,-4.61,-4.61,0,*57
1545955747.94,59263,0.0,0.0,-3.97,-4.61,-4.61,0,*56
1545955749.17,59264,0.0,0.0,-3.97,-4.61,-4.61,0,*51
1545955750.4,59265,0.0,0.0,-3.97,-4.61,-4.61,0,*50
1545955751.6,59266,0.0,0.0,-3.95,-4.61,-4.49,0,*5B
1545955752.81,59267,0.0,0.0,-3.95,-4.57,-4.61,0,*55
1545955754.04,59268,0.0,0.0,-3.97,-4.61,-4.61,0,*5D
1545955755.24,59269,0.0,0.0,-3.95,-4.57,-4.49,0,*51
1545955756.47,59270,0.0,0.0,-3.97,-4.61,-4.61,0,*54
1545955757.68,59271,0.0,0.0,-3.95,-4.57,-4.57,0,*57
1545955758.89,59272,0.0,0.0,-3.95,-4.57,-4.57,0,*54
1545955760.12,59273,0.0,0.0,-3.97,-4.65,-4.61,0,*53
1545955761.33,59274,0.0,0.0,-3.95,-4.57,-4.57,0,*52
1545955762.56,59275,0.0,0.0,-3.97,-4.61,-4.61,0,*51
1545955763.76,59276,0.0,0.0,-3.95,-4.57,-4.57,0,*50
1545955764.97,59277,0.0,0.0,-3.95,-4.61,-4.57,0,*54